Miscellaneous Local Product
Issued by NWS North Platte, NE

Home | Current Version | Previous Version | Graphics & Text | Print | Product List | Glossary On
Versions: 1 2 3 4 5 6 7 8 9 10 11 12 13 14 15 16 17 18 19 20 21 22 23 24 25 26 27 28 29 30 31 32 33 34 35 36 37 38 39 40 41 42 43 44 45 46 47 48 49 50
000
AXUS43 KLBF 050410
MISLBF


WESTERN AND NORTH CENTRAL NEBRASKA HOURLY WEATHER ROUNDUP
NATIONAL WEATHER SERVICE NORTH PLATTE NE
1100 PM CDT WED MAY 04 2016

NOTE: "FAIR" INDICATES FEW OR NO CLOUDS BELOW 12,000 FEET WITH NO
SIGNIFICANT WEATHER AND/OR OBSTRUCTIONS TO VISIBILITY.

NOTE: STATIONS NOT REPORTING VARIABLES SUCH AS SKY/WEATHER OR
PRESSURE ARE PROVIDED BY RAWS AND APRS NETWORKS AND ARE NOT UNDER
NATIONAL WEATHER SERVICE QUALITY CONTROL.

...OBSERVATIONS IN AND NEAR THE EASTERN PANHANDLE OF NEBRASKA...

CITY           SKY/WX    TMP DP  RH WIND       PRES   REMARKS
PINE RIDGE     CLEAR     56  40  55 CALM      30.05R
CHADRON        CLEAR     57  42  57 SE10      30.03R
ALLIANCE       CLEAR     49  42  77 S8        30.08S
SIDNEY         CLEAR     50  42  74 S8        30.14R
CRESCENT LAKE    N/A     58  41  54 S5          N/A
BIG SPRINGS      N/A     60  44  56 S6          N/A
$$

...OBSERVATIONS IN NORTHERN NEBRASKA AND FAR SOUTHERN SOUTH DAKOTA...

CITY           SKY/WX    TMP DP  RH WIND       PRES   REMARKS
WINNER         FAIR      55  41  59 S9        30.05S
VALENTINE      CLEAR     56  38  50 CALM      30.07R
THEDFORD       CLEAR     55  40  57 SE5       30.09S
AINSWORTH      CLEAR     51  41  68 SE6       30.08S
O`NEILL        CLEAR     54  38  53 CALM      30.07S
ORD            CLEAR     46  41  82 CALM      30.07R
BROKEN BOW     CLEAR     46  39  76 N3        30.08R
VALENTINE NWR    N/A     54  40  59 CALM        N/A
BUTTE            N/A     59  38  45 W3          N/A
HALSEY           N/A     60  33  36 SE5         N/A
CHAMBERS         N/A     49  35  59 CALM        N/A
EWING            N/A     48  39  71 CALM        N/A
$$

...OBSERVATIONS IN SOUTHWEST NEBRASKA AND FAR NORTHEAST COLORADO...

CITY           SKY/WX    TMP DP  RH WIND       PRES   REMARKS
HOLYOKE        FAIR      55  43  62 S6        30.12R
IMPERIAL       CLEAR     56  41  57 SE5       30.10R
OGALLALA       CLEAR     56  39  52 E3        30.10R
NORTH PLATTE   CLEAR     50  40  68 E6        30.08S
MCCOOK         CLEAR     59  41  51 SE5       30.09R
LEXINGTON      CLEAR     54  41  62 CALM      30.09R
PAXTON           N/A     57  44  62 E3          N/A
STAPLETON        N/A     56  38  51 CALM        N/A
GOTHENBURG       N/A     60  38  44 CALM        N/A
CALLAWAY         N/A     53  42  66 CALM        N/A
$$

...OBSERVATIONS IN CENTRAL LINCOLN COUNTY AREA...

CITY           SKY/WX    TMP DP  RH WIND       PRES   REMARKS
N.P. AIRPORT   CLEAR     50  40  68 E6        30.08S
N.P. DOWNTOWN    N/A     60  41  50 CALM        N/A
N.P. SOUTHEAST   N/A     56  43  62 CALM        N/A
N.P. HILLCREST   N/A     58  39  49 E8          N/A
$$

...SOME OBSERVATIONS FROM AROUND THE REGION...

CITY           SKY/WX    TMP DP  RH WIND       PRES   REMARKS
DENVER         PTCLDY    50  39  66 SE12      30.16R
LARAMIE        CLEAR     48  36  63 S9        30.22R
CHEYENNE       CLEAR     54  35  48 SW8       30.18R
SCOTTSBLUFF    CLEAR     56  43  61 SE6       30.09R
RAPID CITY     CLEAR     52  43  71 S3        30.03R
BISMARCK       CLEAR     58  46  64 S5        29.95S
PIERRE         CLEAR     56  41  57 S5        30.01S
SIOUX FALLS    CLEAR     49  35  58 CALM      30.02R
OMAHA          CLEAR     54  44  69 CALM      30.01R
GRAND ISLAND   CLEAR     50  38  63 CALM      30.07S
KANSAS CITY    CLEAR     57  36  45 NW6       30.01R
WICHITA        CLEAR     55  40  56 NW6       30.05R
OKLAHOMA CITY  CLEAR     64  43  46 N5        30.04R
DALLAS         CLEAR     73  51  46 W9        29.98R
AMARILLO       CLEAR     58  40  51 SE8       30.15R
DODGE CITY     CLEAR     56  45  66 E7        30.10R
HAYS           CLEAR     55  41  58 MISG        N/A
GOODLAND       CLEAR     55  42  61 SE5       30.12R
$$




USA.gov is the U.S. government's official web portal to all federal, state and local government web resources and services.